Location: Ottawa
(45.4167°N, 75.7000°W)
Time: 13:05:30
(UTC-04:00)

Vanguard 1 Rocket - Visible Passes

Search period start: 17 October 2017 00:00
Search period end: 27 October 2017 00:00
Orbit: 655 x 4222 km, 34.3° (Epoch: 16 October)

Date Brightness Start Highest point End Pass type
(mag) Time Alt. Az. Time Alt. Az. Time Alt. Az.
20 Oct 10.1 06:58:22 10° SSW 07:03:01 16° SSE 07:06:36 10° SE visible
21 Oct 10.5 05:48:02 10° S 05:51:53 13° SSE 05:55:02 10° SE visible
22 Oct 9.8 06:59:46 10° SSW 07:06:14 21° SSE 07:10:43 10° ESE visible
23 Oct 10.2 05:48:12 10° SSW 05:55:05 18° SSE 05:59:57 10° ESE visible
24 Oct 10.6 04:37:24 10° S 04:43:36 15° SSE 04:48:20 10° SE visible
24 Oct 9.6 07:01:39 10° SW 07:09:26 27° S 07:14:27 10° ESE visible
25 Oct 11.0 03:29:51 10° SSE 03:31:46 10° SSE 03:33:32 10° SE visible
25 Oct 10.0 05:49:19 10° SSW 05:58:17 24° SSE 06:04:02 10° ESE visible
26 Oct 10.4 04:37:19 10° SSW 04:46:45 21° SSE 04:53:07 10° ESE visible
26 Oct 9.4 07:03:47 10° SW 07:12:36 31° S 07:18:00 10° ESE visible
